Location: Newark
(13.6797°N, 8.5297°E)
Time: 10:31:17
(UTC+00:00)

LightSail 2 - Pass Details

Date: 10 December 2019
Orbit: 704 x 720 km, 24.0° (Epoch: 22 January)

Event Time Altitude Azimuth Distance (km) Brightness Sun altitude
Rises 19:32:58 0° 285° (WNW) 3,087 9.1 -35.9°
Reaches altitude 10° 19:35:27 10° 281° (W) 2,166 8.2 -36.5°
Enters shadow 19:37:09 21° 274° (W) 1,562 7.4 -36.9°
